Lid_Strength_Index
0 0 0 0 0 0 1 1 0 1 1 1 1 1 1 1 1 1 0 -2 -2 -2 -2 -2 -1 -1 -1 -1 -1 -2 -2 -2 -2 -2 -1 -1 -1 -2 -2 -2 -2 -2 -1
1 0 0 1 1 1 0 1 1 1 1 1 1 1 1 1 1 1 1 -0 -1 -2 -2 -2 -2 -2 -1 -1 -1 -2 -2 -2 -2 -2 -1 -1 -1 -1 -2 -2 -2 -1 -2
1 0 0 1 1 1 1 1 2 1 1 1 1 1 0 1 1 1 1 2 -0 -1 -2 -2 -2 -2 -1 -1 -1 -2 -2 -1 -2 -2 -1 -1 -1 -1 -1 -1 -2 -2 -2
-0 0 1 1 1 0 1 1 2 2 1 1 2 1 1 1 1 1 2 1 2 -0 -1 -1 -1 -2 -2 -2 -2 -2 -2 -1 -1 -2 -2 -1 -1 -1 -1 -1 -1 -1 -1
0 0 0 1 1 1 1 1 1 2 2 2 1 1 1 1 1 1 1 2 1 0 1 -0 -1 -1 -1 -2 -2 -2 -2 -2 -1 -2 -2 -2 -1 -1 -1 -1 -1 -1 -1
0 0 1 1 1 1 2 2 2 1 2 2 1 2 2 1 1 1 1 1 1 0 0 0 -0 -0 -1 -1 -1 -2 -2 -2 -1 -2 -1 -1 -1 -1 -1 -1 -1 -1 -1
0 1 1 1 1 1 2 2 1 2 2 1 2 3 2 1 1 2 1 1 1 1 0 -0 0 0 -0 -1 -1 -1 -2 -2 -2 -2 -1 -1 -1 -1 -1 -1 -1 -1 -1
0 0 0 1 1 1 1 1 2 2 2 1 3 4 5 4 2 2 2 2 1 1 1 0 1 0 0 0 0 -1 -1 -2 -2 -2 -1 -1 -1 -1 -1 -1 -1 -1 -1
0 0 0 0 1 1 2 1 1 2 3 2 2 3 6 7 4 3 3 2 2 1 1 1 1 0 -0 1 -0 -1 -1 -2 -2 -2 -1 -1 -1 -1 -1 -1 -1 -1 -1
0 1 0 0 1 1 2 2 1 1 2 3 2 2 3 3 6 6 3 2 2 1 2 2 1 0 1 0 -0 -1 -0 -1 -2 -2 -1 -1 -2 -2 -1 -1 -1 -1 -1
0 0 1 1 1 1 1 1 1 1 1 2 3 3 3 2 3 4 6 4 3 2 2 2 1 1 1 0 0 0 -0 -0 -0 -1 -1 -1 -1 -1 -1 -1 -1 -1 -1
2 1 0 0 1 1 1 2 1 1 1 2 2 2 4 4 4 4 5 5 5 3 2 2 1 1 1 1 -0 -0 1 1 1 1 0 -0 -1 -1 -1 -1 -1 -1 -1
3 2 1 1 1 1 0 1 1 1 1 2 2 3 2 2 2 3 4 4 5 4 3 2 2 1 1 1 1 -0 0 1 1 2 1 1 0 -0 -1 -1 -1 -1 -1
1 2 1 1 1 1 1 1 1 1 1 1 3 2 2 1 1 2 3 4 6 6 4 4 2 2 1 1 0 -0 1 1 2 2 2 2 1 1 -0 -0 -0 0 -0
1 2 1 1 1 1 1 1 1 1 1 1 1 2 2 1 1 1 2 3 5 7 6 3 4 2 1 1 1 1 1 1 2 2 2 2 2 1 1 1 1 1 1
1 1 1 1 1 1 1 1 1 3 2 2 1 4 2 1 1 1 2 3 3 4 7 4 3 2 1 0 1 1 1 2 2 3 2 2 3 2 2 2 2 2 2
1 1 1 1 2 2 2 1 1 2 2 2 1 2 3 3 2 1 3 4 3 4 5 4 3 2 3 2 2 1 1 1 1 3 3 2 3 3 3 2 2 2 2
1 1 1 1 1 1 2 1 2 1 2 2 2 2 2 1 2 2 3 4 3 4 4 5 4 4 3 2 2 2 1 -0 1 2 4 3 4 4 4 4 3 4 4
1 1 1 1 1 1 1 2 1 1 2 2 2 2 2 2 2 2 4 3 3 3 3 4 4 3 3 2 3 3 2 2 1 3 4 3 4 4 5 5 5 5 6
2 2 1 1 1 1 1 1 1 1 1 2 2 2 2 2 2 2 4 3 3 3 4 4 4 4 4 3 3 4 3 2 1 1 3 4 4 4 4 4 5 5 7
1 1 1 1 1 1 1 1 2 2 2 2 2 1 2 3 4 3 3 3 4 4 4 4 4 4 4 4 4 3 3 2 2 1 2 3 3 3 3 4 3 3 6
2 2 2 2 2 1 4 7 5 2 2 2 2 2 2 6 6 7 7 6 3 4 4 4 4 4 4 4 4 3 4 4 5 2 2 2 2 3 3 3 4 5 7
3 3 3 2 2 1 5 6 7 4 2 2 2 2 3 3 5 5 9 9 7 5 4 3 4 4 4 3 4 4 4 5 4 2 1 3 2 2 1 2 6 6 7
3 3 4 3 3 3 5 7 7 4 2 2 2 2 3 5 5 5 5 4 4 4 4 3 3 3 3 2 3 2 3 3 3 2 2 4 2 2 2 2 7 8 8
3 4 4 4 4 4 6 6 6 3 2 2 2 2 3 3 9 10 4 4 5 6 9 9 8 9 10 9 5 3 3 3 4 3 2 2 2 3 2 2 4 8 9
4 3 4 4 5 5 6 6 7 3 3 2 2 2 7 4 11 10 3 3 4 5 5 5 5 6 6 5 8 3 3 4 4 4 2 3 3 3 4 2 3 5 6